Location: Recife
(8.0585°S, 34.8848°W)
Time: 20:33:12
(UTC-03:00)

S-56A Canister/Altair - Pass Details

Date: 22 April 2026
Orbit: 633 x 2484 km, 38.9° (Epoch: 16 May)

Event Time Altitude Azimuth Distance (km) Brightness Sun altitude
Rises 13:11:45 0° 288° (WNW) 5,880 12.5 55.1°
Reaches altitude 10° 13:16:28 10° 280° (W) 4,657 12.2 54.2°
Maximum altitude 13:27:07 33° 221° (SW) 2,567 10.7 52.0°
Drops below altitude 10° 13:34:50 10° 159° (SSE) 3,339 10.6 50.3°
Sets 13:37:39 0° 148° (SSE) 4,062 10.9 49.7°
